Location: McFarlands Corners
(41.4117°N, 81.3382°W)
Time: 00:09:42
(UTC+00:00)

Vanguard 3 - Pass Details

Date: 13 November 2024
Orbit: 507 x 3220 km, 33.4° (Epoch: 06 December)

Event Time Altitude Azimuth Distance (km) Brightness Sun altitude
Rises 23:49:59 0° 274° (W) 5,140 12.8 -19.2°
Reaches altitude 10° 23:54:49 10° 262° (W) 3,604 11.7 -20.1°
Maximum altitude 00:01:01 22° 216° (SW) 2,126 9.7 -21.3°
Drops below altitude 10° 00:05:21 10° 166° (SSE) 2,402 9.5 -22.1°
Enters shadow 00:06:23 - 158° (SSE) 2,650 9.6 -22.3°
